Somerville, NJ

10:26 AM EDT on June 24, 2017 (GMT -0400)
Somerset

Weather History for KSMQ - July, 2013

Change the Weather History Date:

Sunday, July 7, 2013

  Actual Average Record
Temperature  
Mean Temperature 82 °F -  
Max Temperature 91 °F 84 °F 100 °F (2010)
Min Temperature 72 °F 59 °F 46 °F (1979)
Cooling Degree Days 16    
Growing Degree Days 32 (Base 50)    
Moisture  
Dew Point 72 °F    
Average Humidity 77    
Maximum Humidity 97    
Minimum Humidity 50    
Precipitation  
Precipitation 0.02 in - - ()
Sea Level Pressure  
Sea Level Pressure 30.00 in    
Wind  
Wind Speed 2 mph (SSW)    
Max Wind Speed 8 mph    
Max Gust Speed 24 mph    
Visibility 10 miles    
Events Rain    
Averages and records for this station are not official NWS values.
T = Trace of Precipitation, MM = Missing Value Source: NWS Daily Summary

Daily Weather History Graph

Daily Weather History Graph

Search for Another Location

Airport or City:

Trip Planner

Search our weather history database for the weather conditions in past years. The results will help you decide how hot, cold, wet, or windy it might be!

Date:

Astronomy

Jul. 07, 2013 Rise Set
Actual Time 5:35 AM EDT 8:31 PM EDT
Civil Twilight 5:02 AM EDT 9:04 PM EDT
Nautical Twilight 4:20 AM EDT 9:46 PM EDT
Astronomical Twilight 3:32 AM EDT 10:34 PM EDT
Moon 5:09 AM EDT (7/7) 7:53 PM EDT (7/7)
Length of Visible Light 16h 02m
Length of Day
14h 56m
Waning Crescent, 0% of the Moon is Illuminated
Jul 7
Waning Crescent
Jul 8
New
Jul 15
First Quarter
Jul 22
Full
Jul 29
Last Quarter

Hourly Weather History & Observations

Time (EDT) Temp. Heat Index Dew Point Humidity Pressure Visibility Wind Dir Wind Speed Gust Speed Precip Events Conditions
12:53 AM 75.0 °F - 73.0 °F 94% 30.05 in 10.0 mi Calm Calm - N/A   Clear
1:53 AM 75.0 °F - 73.0 °F 94% 30.05 in 10.0 mi Calm Calm - N/A   Clear
2:53 AM 73.9 °F - 72.0 °F 93% 30.04 in 10.0 mi Calm Calm - N/A   Clear
3:53 AM 73.9 °F - 72.0 °F 93% 30.04 in 9.0 mi Calm Calm - N/A   Clear
4:53 AM 72.0 °F - 71.1 °F 97% 30.03 in 5.0 mi Calm Calm - N/A   Clear
5:53 AM 72.0 °F - 71.1 °F 97% 30.04 in 4.0 mi Calm Calm - N/A   Clear
6:53 AM 75.9 °F - 72.0 °F 87% 30.04 in 10.0 mi Calm Calm - N/A   Clear
7:53 AM 79.0 °F - 72.0 °F 79% 30.04 in 10.0 mi Calm Calm - N/A   Clear
8:53 AM 82.0 °F 86.7 °F 72.0 °F 71% 30.04 in 10.0 mi Calm Calm - N/A   Clear
9:53 AM 84.9 °F 91.4 °F 73.0 °F 67% 30.03 in 10.0 mi Calm Calm - N/A   Clear
10:53 AM 86.0 °F 93.0 °F 73.0 °F 65% 30.02 in 10.0 mi South 6.9 mph - N/A   Clear
11:53 AM 88.0 °F 95.6 °F 73.0 °F 61% 30.01 in 10.0 mi Variable 3.5 mph - N/A   Clear
12:53 PM 89.1 °F 98.0 °F 73.9 °F 61% 30.00 in 10.0 mi South 5.8 mph - N/A   Clear
1:53 PM 90.0 °F 99.0 °F 73.9 °F 59% 29.98 in 10.0 mi SSW 5.8 mph - N/A   Partly Cloudy
2:53 PM 91.9 °F 103.2 °F 75.0 °F 58% 29.96 in 10.0 mi South 8.1 mph - N/A   Partly Cloudy
3:53 PM 90.0 °F 96.9 °F 72.0 °F 55% 29.94 in 10.0 mi Variable 6.9 mph - N/A   Scattered Clouds
4:53 PM 91.0 °F 99.3 °F 73.0 °F 55% 29.93 in 10.0 mi Variable 3.5 mph - N/A   Partly Cloudy
5:53 PM 91.0 °F 96.6 °F 70.0 °F 50% 29.93 in 10.0 mi Variable 6.9 mph - N/A   Clear
6:53 PM 90.0 °F 96.9 °F 72.0 °F 55% 29.93 in 10.0 mi North - - N/A   Clear
7:53 PM 86.0 °F 92.2 °F 72.0 °F 63% 29.94 in 10.0 mi Calm Calm - N/A   Clear
8:37 PM 73.4 °F - 71.6 °F 94% 29.98 in 9.0 mi NNW 8.1 mph 24.2 mph 0.02 in Rain Light Rain
8:53 PM 73.9 °F - 71.1 °F 91% 29.97 in 10.0 mi NNE 4.6 mph - 0.02 in   Mostly Cloudy
9:53 PM 73.0 °F - 71.1 °F 93% 29.97 in 10.0 mi Calm Calm - 0.00 in   Clear
10:53 PM 73.0 °F - 71.1 °F 93% 29.98 in 10.0 mi Calm Calm - N/A   Clear
11:53 PM 72.0 °F - 70.0 °F 93% 29.99 in 10.0 mi Calm Calm - N/A   Clear